Weather History for Provo, UT

Change the Weather History Date:

Tuesday, August 26, 2014

  Actual Average Record
Temperature  
Mean Temperature 65 °F -  
Max Temperature 73 °F 83 °F 96 °F (1985)
Min Temperature 57 °F 54 °F 44 °F (1992)
Growing Degree Days 15 (Base 50)    
Moisture  
Dew Point 53 °F    
Average Humidity 69    
Maximum Humidity 88    
Minimum Humidity 43    
Precipitation  
Precipitation 0.02 in - - ()
Sea Level Pressure  
Sea Level Pressure 30.13 in    
Wind  
Wind Speed 6 mph (SW)    
Max Wind Speed 15 mph    
Max Gust Speed 17 mph    
Visibility 11 miles    
Events      
Averages and records for this station are not official NWS values.
T = Trace of Precipitation, MM = Missing Value Source: NWS Daily Summary

Daily Weather History Graph

Daily Weather History Graph

Search for Another Location

Airport:

Trip Planner

Search our weather history database for the weather conditions in past years. The results will help you decide how hot, cold, wet, or windy it might be!

Date:

Astronomy

Aug. 26, 2014 Rise Set
Actual Time 6:48 AM MDT 8:07 PM MDT
Civil Twilight 6:20 AM MDT 8:35 PM MDT
Nautical Twilight 5:46 AM MDT 9:09 PM MDT
Astronomical Twilight 5:10 AM MDT 9:45 PM MDT
Moon 7:52 AM MDT (8/26) 8:30 PM MDT (8/26)
Length of Visible Light 14h 15m
Length of Day
13h 19m
New Moon, 1% of the Moon is Illuminated
Aug 26
New Moon
Sep 2
First Quarter
Sep 8
Full
Sep 15
Last Quarter
Sep 24
New

Hourly Weather History & Observations

Time (MDT) Temp. Dew Point Humidity Pressure Visibility Wind Dir Wind Speed Gust Speed Precip Events Conditions
12:15 AM 66.2 °F 55.4 °F 68% 30.04 in 10.0 mi West 9.2 mph - N/A   Mostly Cloudy
12:35 AM 68.0 °F 53.6 °F 60% 30.05 in 10.0 mi SW 5.8 mph - N/A   Partly Cloudy
12:55 AM 66.2 °F 53.6 °F 64% 30.05 in 10.0 mi ENE 4.6 mph - N/A   Clear
1:15 AM 64.4 °F 53.6 °F 68% 30.06 in 10.0 mi Calm Calm - N/A   Scattered Clouds
1:35 AM 64.4 °F 53.6 °F 68% 30.07 in 10.0 mi Calm Calm - N/A   Scattered Clouds
1:55 AM 64.4 °F 53.6 °F 68% 30.08 in 10.0 mi Calm Calm - N/A   Overcast
2:15 AM 64.4 °F 53.6 °F 68% 30.08 in 10.0 mi North 5.8 mph - N/A   Mostly Cloudy
2:35 AM 64.4 °F 53.6 °F 68% 30.08 in 10.0 mi North 5.8 mph - N/A   Partly Cloudy
2:55 AM 64.4 °F 53.6 °F 68% 30.08 in 10.0 mi NNW 5.8 mph - N/A   Clear
3:15 AM 64.4 °F 53.6 °F 68% 30.10 in 10.0 mi WNW 13.8 mph - N/A   Clear
3:35 AM 64.4 °F 53.6 °F 68% 30.12 in 10.0 mi WNW 15.0 mph - N/A   Clear
3:55 AM 64.4 °F 51.8 °F 64% 30.12 in 10.0 mi NNW 6.9 mph - N/A   Clear
4:15 AM 62.6 °F 53.6 °F 72% 30.12 in 10.0 mi NE 5.8 mph - N/A   Clear
4:35 AM 62.6 °F 51.8 °F 68% 30.12 in 10.0 mi Calm Calm - N/A   Scattered Clouds
4:55 AM 60.8 °F 53.6 °F 77% 30.13 in 10.0 mi South 5.8 mph - N/A   Scattered Clouds
5:15 AM 60.8 °F 51.8 °F 72% 30.13 in 10.0 mi South 3.5 mph - N/A   Clear
5:35 AM 59.0 °F 51.8 °F 77% 30.14 in 10.0 mi ESE 5.8 mph - N/A   Clear
5:55 AM 59.0 °F 51.8 °F 77% 30.14 in 10.0 mi ESE 6.9 mph - N/A   Clear
6:15 AM 59.0 °F 51.8 °F 77% 30.14 in 10.0 mi SSE 8.1 mph - N/A   Clear
6:35 AM 57.2 °F 51.8 °F 82% 30.15 in 4.0 mi SE 4.6 mph - N/A   Clear
6:55 AM 57.2 °F 53.6 °F 88% 30.15 in 6.0 mi SSE 6.9 mph - N/A   Clear
7:53 AM 60.8 °F 51.8 °F 72% 30.16 in 15.0 mi SE 4.6 mph - N/A   Mostly Cloudy
8:50 AM 60.8 °F 53.6 °F 77% 30.17 in 15.0 mi Calm Calm - N/A   Mostly Cloudy
9:56 AM 64.4 °F 53.6 °F 68% 30.18 in 15.0 mi WSW 5.8 mph - N/A   Mostly Cloudy
11:52 AM 68.0 °F 55.4 °F 64% 30.18 in 15.0 mi West 5.8 mph - N/A   Mostly Cloudy
12:57 PM 69.8 °F 53.6 °F 56% 30.16 in 15.0 mi Calm Calm - N/A   Mostly Cloudy
1:53 PM 73.4 °F 53.6 °F 50% 30.14 in 15.0 mi Variable 4.6 mph - N/A   Mostly Cloudy
3:49 PM 73.4 °F 57.2 °F 57% 30.12 in 15.0 mi SSE 8.1 mph - N/A   Mostly Cloudy
4:59 PM 73.4 °F 57.2 °F 57% 30.09 in 15.0 mi SW 4.6 mph - N/A   Mostly Cloudy
5:47 PM 73.4 °F 55.4 °F 53% 30.11 in 15.0 mi WNW 6.9 mph - N/A   Mostly Cloudy
6:47 PM 69.8 °F 46.4 °F 43% 30.12 in 15.0 mi WNW 11.5 mph 17.3 mph N/A   Overcast
7:55 PM 68.0 °F 48.2 °F 49% 30.16 in 15.0 mi West 11.5 mph 17.3 mph N/A   Overcast
9:15 PM 60.8 °F 53.6 °F 77% 30.20 in 10.0 mi ENE 6.9 mph - N/A   Mostly Cloudy
9:35 PM 60.8 °F 53.6 °F 77% 30.20 in 10.0 mi NE 3.5 mph - N/A   Mostly Cloudy
9:55 PM 60.8 °F 53.6 °F 77% 30.20 in 10.0 mi Calm Calm - N/A   Mostly Cloudy
10:15 PM 60.8 °F 53.6 °F 77% 30.20 in 10.0 mi North 3.5 mph - N/A   Overcast
10:35 PM 60.8 °F 53.6 °F 77% 30.19 in 10.0 mi NNW 3.5 mph - N/A   Mostly Cloudy
11:15 PM 60.8 °F 51.8 °F 72% 30.20 in 10.0 mi Calm Calm - N/A   Mostly Cloudy
11:35 PM 62.6 °F 53.6 °F 72% 30.20 in 10.0 mi South 3.5 mph - N/A   Mostly Cloudy
11:55 PM 60.8 °F 53.6 °F 77% 30.21 in 10.0 mi SSW 4.6 mph - N/A   Overcast